Time,TemperatureF,DewpointF,PressureIn,WindDirection,WindDirectionDegrees,WindSpeedMPH,WindSpeedGustMPH,Humidity,HourlyPrecipIn,Conditions,Clouds,dailyrainin,SoftwareType,DateUTC
2013-04-13 00:01:00,38.4,34.3,29.85,West,276,8.0,11.0,85,0.00,,,0.00,Wunderground v.1.15,2013-04-13 05:01:00,
2013-04-13 00:04:00,38.4,34.0,29.85,WNW,284,9.0,12.0,84,0.00,,,0.00,Wunderground v.1.15,2013-04-13 05:04:00,
2013-04-13 00:05:00,38.4,34.3,29.85,WNW,284,9.0,12.0,85,0.00,,,0.00,Wunderground v.1.15,2013-04-13 05:05:00,
2013-04-13 00:06:00,38.4,34.3,29.85,West,281,9.0,12.0,85,0.00,,,0.00,Wunderground v.1.15,2013-04-13 05:06:00,
2013-04-13 00:07:00,38.4,34.3,29.85,NW,317,9.0,13.0,85,0.00,,,0.00,Wunderground v.1.15,2013-04-13 05:07:00,
2013-04-13 00:11:00,38.1,33.7,29.85,WNW,296,11.0,14.0,84,0.00,,,0.00,Wunderground v.1.15,2013-04-13 05:11:00,
2013-04-13 00:13:00,38.0,33.9,29.85,WNW,290,11.0,14.0,85,0.00,,,0.00,Wunderground v.1.15,2013-04-13 05:13:00,
2013-04-13 00:14:00,38.0,33.9,29.85,WNW,294,11.0,14.0,85,0.00,,,0.00,Wunderground v.1.15,2013-04-13 05:14:00,
2013-04-13 00:15:00,37.9,33.8,29.85,West,270,12.0,14.0,85,0.00,,,0.00,Wunderground v.1.15,2013-04-13 05:15:00,
2013-04-13 00:19:00,37.7,33.6,29.85,WNW,285,13.0,17.0,85,0.00,,,0.00,Wunderground v.1.15,2013-04-13 05:19:00,
2013-04-13 00:20:00,37.7,33.6,29.85,West,274,13.0,14.0,85,0.00,,,0.00,Wunderground v.1.15,2013-04-13 05:20:00,
2013-04-13 00:24:00,37.5,33.7,29.86,WNW,298,13.0,14.0,86,0.00,,,0.00,Wunderground v.1.15,2013-04-13 05:24:00,
2013-04-13 00:26:00,37.5,33.7,29.86,West,281,13.0,14.0,86,0.00,,,0.00,Wunderground v.1.15,2013-04-13 05:26:00,
2013-04-13 00:28:00,37.4,35.3,29.85,WNW,293,12.0,14.0,92,0.00,,,0.00,Wunderground v.1.15,2013-04-13 05:28:00,
2013-04-13 00:30:00,37.3,33.8,29.85,West,281,12.0,12.0,87,0.00,,,0.00,Wunderground v.1.15,2013-04-13 05:30:00,
2013-04-13 00:31:00,37.3,33.8,29.86,WNW,282,11.0,12.0,87,0.00,,,0.00,Wunderground v.1.15,2013-04-13 05:31:00,
2013-04-13 00:33:00,37.3,33.8,29.86,West,281,11.0,12.0,87,0.00,,,0.00,Wunderground v.1.15,2013-04-13 05:33:00,
2013-04-13 00:36:00,37.2,34.0,29.86,NW,304,10.0,12.0,88,0.00,,,0.00,Wunderground v.1.15,2013-04-13 05:36:00,
2013-04-13 00:37:00,37.2,34.0,29.86,West,280,11.0,12.0,88,0.00,,,0.00,Wunderground v.1.15,2013-04-13 05:37:00,
2013-04-13 00:40:00,37.2,34.0,29.86,WNW,292,11.0,12.0,88,0.00,,,0.00,Wunderground v.1.15,2013-04-13 05:40:00,
2013-04-13 00:42:00,37.1,33.9,29.86,West,279,11.0,12.0,88,0.00,,,0.00,Wunderground v.1.15,2013-04-13 05:42:00,
2013-04-13 00:43:00,37.1,33.9,29.86,WNW,294,11.0,12.0,88,0.00,,,0.00,Wunderground v.1.15,2013-04-13 05:43:00,
2013-04-13 00:48:00,37.1,34.2,29.86,West,273,11.0,14.0,89,0.00,,,0.00,Wunderground v.1.15,2013-04-13 05:48:00,
2013-04-13 00:49:00,37.1,34.2,29.86,West,275,10.0,14.0,89,0.00,,,0.00,Wunderground v.1.15,2013-04-13 05:49:00,
2013-04-13 00:51:00,37.1,34.2,29.86,West,268,10.0,12.0,89,0.00,,,0.00,Wunderground v.1.15,2013-04-13 05:51:00,
2013-04-13 00:52:00,37.1,34.2,29.86,West,275,10.0,12.0,89,0.00,,,0.00,Wunderground v.1.15,2013-04-13 05:52:00,
2013-04-13 00:55:00,37.0,34.1,29.86,West,280,9.0,12.0,89,0.00,,,0.00,Wunderground v.1.15,2013-04-13 05:55:00,
2013-04-13 00:56:00,37.1,34.2,29.86,WNW,284,8.0,12.0,89,0.00,,,0.00,Wunderground v.1.15,2013-04-13 05:56:00,
2013-04-13 00:59:00,37.0,34.1,29.86,West,270,8.0,12.0,89,0.00,,,0.00,Wunderground v.1.15,2013-04-13 05:59:00,
2013-04-13 01:02:00,37.0,34.1,29.86,West,265,8.0,11.0,89,0.00,,,0.00,Wunderground v.1.15,2013-04-13 06:02:00,
2013-04-13 01:03:00,37.1,34.2,29.86,WNW,284,7.0,11.0,89,0.00,,,0.00,Wunderground v.1.15,2013-04-13 06:03:00,
2013-04-13 01:04:00,37.1,34.2,29.86,West,270,8.0,11.0,89,0.00,,,0.00,Wunderground v.1.15,2013-04-13 06:04:00,
2013-04-13 01:08:00,37.1,34.2,29.86,West,275,8.0,13.0,89,0.00,,,0.00,Wunderground v.1.15,2013-04-13 06:08:00,
2013-04-13 01:10:00,37.1,34.2,29.86,West,267,8.0,8.0,89,0.00,,,0.00,Wunderground v.1.15,2013-04-13 06:10:00,
2013-04-13 01:12:00,37.1,34.2,29.87,West,271,8.0,8.0,89,0.00,,,0.00,Wunderground v.1.15,2013-04-13 06:12:00,
2013-04-13 01:13:00,37.1,34.2,29.86,WNW,284,8.0,8.0,89,0.00,,,0.00,Wunderground v.1.15,2013-04-13 06:13:00,
2013-04-13 01:14:00,37.1,34.2,29.86,WSW,257,7.0,8.0,89,0.00,,,0.00,Wunderground v.1.15,2013-04-13 06:14:00,
2013-04-13 01:17:00,37.1,34.2,29.86,WNW,284,7.0,10.0,89,0.00,,,0.00,Wunderground v.1.15,2013-04-13 06:17:00,
2013-04-13 01:20:00,37.1,34.2,29.86,West,260,6.0,6.0,89,0.00,,,0.00,Wunderground v.1.15,2013-04-13 06:20:00,
2013-04-13 01:24:00,37.1,34.2,29.86,West,269,6.0,8.0,89,0.00,,,0.00,Wunderground v.1.15,2013-04-13 06:24:00,
2013-04-13 01:25:00,37.1,34.2,29.86,West,277,6.0,9.0,89,0.00,,,0.00,Wunderground v.1.15,2013-04-13 06:25:00,
2013-04-13 01:31:00,37.1,34.2,29.86,West,281,7.0,10.0,89,0.00,,,0.00,Wunderground v.1.15,2013-04-13 06:31:00,
2013-04-13 01:32:00,37.1,34.2,29.86,West,267,7.0,10.0,89,0.00,,,0.00,Wunderground v.1.15,2013-04-13 06:32:00,
2013-04-13 01:38:00,37.1,34.2,29.86,WNW,286,7.0,10.0,89,0.00,,,0.00,Wunderground v.1.15,2013-04-13 06:38:00,
2013-04-13 01:39:00,37.1,34.2,29.86,WNW,285,7.0,10.0,89,0.00,,,0.00,Wunderground v.1.15,2013-04-13 06:39:00,
2013-04-13 01:44:00,37.0,34.1,29.86,WNW,288,7.0,9.0,89,0.00,,,0.00,Wunderground v.1.15,2013-04-13 06:44:00,
2013-04-13 01:45:00,37.0,34.1,29.87,West,279,7.0,9.0,89,0.00,,,0.00,Wunderground v.1.15,2013-04-13 06:45:00,
2013-04-13 01:51:00,36.9,34.0,29.86,WNW,288,7.0,11.0,89,0.00,,,0.00,Wunderground v.1.15,2013-04-13 06:51:00,
2013-04-13 01:55:00,36.8,33.9,29.86,WNW,287,7.0,11.0,89,0.00,,,0.00,Wunderground v.1.15,2013-04-13 06:55:00,
2013-04-13 01:58:00,36.8,33.9,29.85,WNW,293,8.0,11.0,89,0.00,,,0.00,Wunderground v.1.15,2013-04-13 06:58:00,
2013-04-13 02:03:00,36.7,33.8,29.86,WNW,302,8.0,11.0,89,0.00,,,0.00,Wunderground v.1.15,2013-04-13 07:03:00,
2013-04-13 02:07:00,36.6,33.4,29.85,WNW,286,9.0,13.0,88,0.00,,,0.00,Wunderground v.1.15,2013-04-13 07:07:00,
2013-04-13 02:08:00,36.6,33.4,29.85,West,277,9.0,13.0,88,0.00,,,0.00,Wunderground v.1.15,2013-04-13 07:08:00,
2013-04-13 02:13:00,36.6,33.4,29.85,WNW,298,10.0,12.0,88,0.00,,,0.00,Wunderground v.1.15,2013-04-13 07:13:00,
2013-04-13 02:14:00,36.6,33.4,29.85,WNW,288,10.0,12.0,88,0.00,,,0.00,Wunderground v.1.15,2013-04-13 07:14:00,
2013-04-13 02:19:00,36.5,33.3,29.84,WNW,297,10.0,13.0,88,0.00,,,0.00,Wunderground v.1.15,2013-04-13 07:19:00,
2013-04-13 02:20:00,36.5,33.3,29.85,WNW,289,10.0,11.0,88,0.00,,,0.00,Wunderground v.1.15,2013-04-13 07:20:00,
2013-04-13 02:25:00,36.5,33.3,29.84,WNW,287,10.0,15.0,88,0.00,,,0.00,Wunderground v.1.15,2013-04-13 07:25:00,
2013-04-13 02:26:00,36.5,33.3,29.84,WNW,294,10.0,15.0,88,0.00,,,0.00,Wunderground v.1.15,2013-04-13 07:26:00,
2013-04-13 02:30:00,36.4,33.2,29.84,WNW,288,9.0,11.0,88,0.00,,,0.00,Wunderground v.1.15,2013-04-13 07:30:00,
2013-04-13 02:32:00,36.4,32.9,29.84,West,281,8.0,11.0,87,0.00,,,0.00,Wunderground v.1.15,2013-04-13 07:32:00,
2013-04-13 02:37:00,36.4,32.9,29.84,WNW,293,8.0,11.0,87,0.00,,,0.00,Wunderground v.1.15,2013-04-13 07:37:00,
2013-04-13 02:40:00,36.4,32.9,29.84,WNW,289,7.0,8.0,87,0.00,,,0.00,Wunderground v.1.15,2013-04-13 07:40:00,
2013-04-13 02:43:00,36.4,32.9,29.84,WNW,294,6.0,8.0,87,0.00,,,0.00,Wunderground v.1.15,2013-04-13 07:43:00,
2013-04-13 02:45:00,36.4,32.9,29.84,WNW,290,7.0,10.0,87,0.00,,,0.00,Wunderground v.1.15,2013-04-13 07:45:00,
2013-04-13 02:50:00,36.3,33.1,29.84,West,280,7.0,7.0,88,0.00,,,0.00,Wunderground v.1.15,2013-04-13 07:50:00,
2013-04-13 02:51:00,36.3,33.1,29.84,WNW,286,7.0,7.0,88,0.00,,,0.00,Wunderground v.1.15,2013-04-13 07:51:00,
2013-04-13 02:57:00,36.2,33.0,29.84,WNW,289,6.0,7.0,88,0.00,,,0.00,Wunderground v.1.15,2013-04-13 07:57:00,
2013-04-13 03:02:00,36.2,33.0,29.84,West,279,5.0,6.0,88,0.00,,,0.00,Wunderground v.1.15,2013-04-13 08:02:00,
2013-04-13 03:07:00,36.2,33.0,29.84,West,280,5.0,6.0,88,0.00,,,0.00,Wunderground v.1.15,2013-04-13 08:07:00,
2013-04-13 03:09:00,36.2,33.0,29.84,WNW,282,4.0,6.0,88,0.00,,,0.00,Wunderground v.1.15,2013-04-13 08:09:00,
2013-04-13 03:15:00,36.2,33.3,29.84,WNW,283,4.0,6.0,89,0.00,,,0.00,Wunderground v.1.15,2013-04-13 08:15:00,
2013-04-13 03:17:00,36.2,33.3,29.84,West,270,4.0,7.0,89,0.00,,,0.00,Wunderground v.1.15,2013-04-13 08:17:00,
2013-04-13 03:21:00,36.2,33.3,29.84,West,271,4.0,7.0,89,0.00,,,0.00,Wunderground v.1.15,2013-04-13 08:21:00,
2013-04-13 03:26:00,36.2,33.3,29.84,West,274,6.0,11.0,89,0.00,,,0.00,Wunderground v.1.15,2013-04-13 08:26:00,
2013-04-13 03:28:00,36.2,33.3,29.84,WNW,292,8.0,11.0,89,0.00,,,0.00,Wunderground v.1.15,2013-04-13 08:28:00,
2013-04-13 03:32:00,36.2,33.3,29.84,WNW,284,9.0,9.0,89,0.00,,,0.00,Wunderground v.1.15,2013-04-13 08:32:00,
2013-04-13 03:35:00,36.1,33.2,29.84,West,275,9.0,11.0,89,0.00,,,0.00,Wunderground v.1.15,2013-04-13 08:35:00,
2013-04-13 03:37:00,36.1,33.2,29.84,West,281,9.0,11.0,89,0.00,,,0.00,Wunderground v.1.15,2013-04-13 08:37:00,
2013-04-13 03:43:00,36.0,33.1,29.84,West,280,8.0,11.0,89,0.00,,,0.00,Wunderground v.1.15,2013-04-13 08:43:00,
2013-04-13 03:48:00,35.9,33.3,29.84,West,275,8.0,11.0,90,0.00,,,0.00,Wunderground v.1.15,2013-04-13 08:48:00,
2013-04-13 03:49:00,35.9,33.3,29.84,West,280,7.0,11.0,90,0.00,,,0.00,Wunderground v.1.15,2013-04-13 08:49:00,
2013-04-13 03:55:00,35.9,33.3,29.84,West,271,6.0,8.0,90,0.00,,,0.00,Wunderground v.1.15,2013-04-13 08:55:00,
2013-04-13 03:57:00,35.9,33.3,29.84,West,260,5.0,8.0,90,0.00,,,0.00,Wunderground v.1.15,2013-04-13 08:57:00,
2013-04-13 04:02:00,35.8,32.9,29.84,West,266,6.0,11.0,89,0.00,,,0.00,Wunderground v.1.15,2013-04-13 09:02:00,
2013-04-13 04:03:00,35.9,33.0,29.84,West,260,6.0,11.0,89,0.00,,,0.00,Wunderground v.1.15,2013-04-13 09:03:00,
2013-04-13 04:08:00,35.9,33.0,29.84,West,272,6.0,11.0,89,0.00,,,0.00,Wunderground v.1.15,2013-04-13 09:08:00,
2013-04-13 04:09:00,35.9,33.0,29.84,West,271,6.0,11.0,89,0.00,,,0.00,Wunderground v.1.15,2013-04-13 09:09:00,
2013-04-13 04:15:00,35.9,33.0,29.84,WSW,252,5.0,8.0,89,0.00,,,0.00,Wunderground v.1.15,2013-04-13 09:15:00,
2013-04-13 04:18:00,35.9,33.0,29.84,WSW,258,6.0,8.0,89,0.00,,,0.00,Wunderground v.1.15,2013-04-13 09:18:00,
2013-04-13 04:20:00,36.0,32.8,29.84,West,266,6.0,6.0,88,0.00,,,0.00,Wunderground v.1.15,2013-04-13 09:20:00,
2013-04-13 04:24:00,36.0,32.8,29.85,WSW,250,7.0,12.0,88,0.00,,,0.00,Wunderground v.1.15,2013-04-13 09:24:00,
2013-04-13 04:25:00,36.0,32.8,29.85,West,277,8.0,12.0,88,0.00,,,0.00,Wunderground v.1.15,2013-04-13 09:25:00,
2013-04-13 04:29:00,36.0,32.5,29.85,West,261,8.0,14.0,87,0.00,,,0.00,Wunderground v.1.15,2013-04-13 09:29:00,
2013-04-13 04:32:00,36.0,32.2,29.85,West,281,10.0,12.0,86,0.00,,,0.00,Wunderground v.1.15,2013-04-13 09:32:00,
2013-04-13 04:35:00,36.1,32.0,29.85,West,269,11.0,13.0,85,0.00,,,0.00,Wunderground v.1.15,2013-04-13 09:35:00,
2013-04-13 04:40:00,36.1,31.7,29.85,WSW,258,11.0,11.0,84,0.00,,,0.00,Wunderground v.1.15,2013-04-13 09:40:00,
2013-04-13 04:41:00,36.1,31.7,29.85,West,279,11.0,11.0,84,0.00,,,0.00,Wunderground v.1.15,2013-04-13 09:41:00,
2013-04-13 04:49:00,35.9,31.5,29.85,WNW,286,11.0,16.0,84,0.00,,,0.00,Wunderground v.1.15,2013-04-13 09:49:00,
2013-04-13 04:51:00,35.9,31.2,29.85,West,279,12.0,15.0,83,0.00,,,0.00,Wunderground v.1.15,2013-04-13 09:51:00,
2013-04-13 04:55:00,35.8,30.8,29.85,West,279,14.0,16.0,82,0.00,,,0.00,Wunderground v.1.15,2013-04-13 09:55:00,
2013-04-13 04:58:00,35.7,31.0,29.86,WNW,285,14.0,16.0,83,0.00,,,0.00,Wunderground v.1.15,2013-04-13 09:58:00,
2013-04-13 05:02:00,35.5,30.5,29.86,WNW,285,13.0,15.0,82,0.00,,,0.00,Wunderground v.1.15,2013-04-13 10:02:00,
2013-04-13 05:04:00,35.5,30.2,29.85,West,269,13.0,20.0,81,0.00,,,0.00,Wunderground v.1.15,2013-04-13 10:04:00,
2013-04-13 05:07:00,35.4,30.1,29.86,WNW,290,15.0,20.0,81,0.00,,,0.00,Wunderground v.1.15,2013-04-13 10:07:00,
2013-04-13 05:09:00,35.4,30.1,29.86,West,281,15.0,20.0,81,0.00,,,0.00,Wunderground v.1.15,2013-04-13 10:09:00,
2013-04-13 05:13:00,35.3,30.1,29.86,West,266,15.0,18.0,81,0.00,,,0.00,Wunderground v.1.15,2013-04-13 10:13:00,
2013-04-13 05:16:00,35.2,30.3,29.85,West,271,14.0,18.0,82,0.00,,,0.00,Wunderground v.1.15,2013-04-13 10:16:00,
2013-04-13 05:23:00,35.2,30.0,29.86,SW,234,12.0,19.0,81,0.00,,,0.00,Wunderground v.1.15,2013-04-13 10:23:00,
2013-04-13 05:24:00,35.1,29.9,29.85,West,279,12.0,19.0,81,0.00,,,0.00,Wunderground v.1.15,2013-04-13 10:24:00,
2013-04-13 05:28:00,35.1,29.6,29.85,West,264,13.0,19.0,80,0.00,,,0.00,Wunderground v.1.15,2013-04-13 10:28:00,
2013-04-13 05:29:00,35.2,29.6,29.85,West,260,13.0,19.0,80,0.00,,,0.00,Wunderground v.1.15,2013-04-13 10:29:00,
2013-04-13 05:35:00,35.1,29.6,29.85,WNW,293,12.0,15.0,80,0.00,,,0.00,Wunderground v.1.15,2013-04-13 10:35:00,
2013-04-13 05:37:00,35.1,29.6,29.85,WNW,291,12.0,15.0,80,0.00,,,0.00,Wunderground v.1.15,2013-04-13 10:37:00,
2013-04-13 05:41:00,35.0,29.8,29.85,WNW,282,13.0,14.0,81,0.00,,,0.00,Wunderground v.1.15,2013-04-13 10:41:00,
2013-04-13 05:43:00,35.0,29.8,29.86,West,267,13.0,14.0,81,0.00,,,0.00,Wunderground v.1.15,2013-04-13 10:43:00,
2013-04-13 05:47:00,35.0,29.8,29.85,West,274,13.0,14.0,81,0.00,,,0.00,Wunderground v.1.15,2013-04-13 10:47:00,
2013-04-13 05:48:00,35.0,29.8,29.85,West,267,13.0,17.0,81,0.00,,,0.00,Wunderground v.1.15,2013-04-13 10:48:00,
2013-04-13 05:54:00,35.0,29.5,29.85,WNW,288,14.0,19.0,80,0.00,,,0.00,Wunderground v.1.15,2013-04-13 10:54:00,
2013-04-13 05:56:00,35.0,29.5,29.86,WNW,292,14.0,19.0,80,0.00,,,0.00,Wunderground v.1.15,2013-04-13 10:56:00,
2013-04-13 06:01:00,35.0,29.1,29.86,WNW,293,14.0,14.0,79,0.00,,,0.00,Wunderground v.1.15,2013-04-13 11:01:00,
2013-04-13 06:02:00,35.0,29.1,29.86,West,277,14.0,14.0,79,0.00,,,0.00,Wunderground v.1.15,2013-04-13 11:02:00,
2013-04-13 06:07:00,34.9,29.4,29.86,West,271,13.0,16.0,80,0.00,,,0.00,Wunderground v.1.15,2013-04-13 11:07:00,
2013-04-13 06:08:00,34.9,29.0,29.86,WNW,286,13.0,16.0,79,0.00,,,0.00,Wunderground v.1.15,2013-04-13 11:08:00,
2013-04-13 06:12:00,34.8,29.3,29.86,West,271,12.0,12.0,80,0.00,,,0.00,Wunderground v.1.15,2013-04-13 11:12:00,
2013-04-13 06:16:00,34.8,29.3,29.86,NW,311,12.0,18.0,80,0.00,,,0.00,Wunderground v.1.15,2013-04-13 11:16:00,
2013-04-13 06:18:00,34.8,29.0,29.86,WNW,286,13.0,18.0,79,0.00,,,0.00,Wunderground v.1.15,2013-04-13 11:18:00,
2013-04-13 06:21:00,34.7,28.5,29.86,West,281,14.0,19.0,78,0.00,,,0.00,Wunderground v.1.15,2013-04-13 11:21:00,
2013-04-13 06:24:00,34.7,28.5,29.86,West,259,15.0,19.0,78,0.00,,,0.00,Wunderground v.1.15,2013-04-13 11:24:00,
2013-04-13 06:27:00,34.7,28.9,29.86,West,277,15.0,19.0,79,0.00,,,0.00,Wunderground v.1.15,2013-04-13 11:27:00,
2013-04-13 06:29:00,34.7,28.2,29.86,West,274,15.0,21.0,77,0.00,,,0.00,Wunderground v.1.15,2013-04-13 11:29:00,
2013-04-13 06:34:00,34.6,28.8,29.86,West,273,13.0,15.0,79,0.00,,,0.00,Wunderground v.1.15,2013-04-13 11:34:00,
2013-04-13 06:38:00,34.6,29.1,29.86,West,267,12.0,15.0,80,0.00,,,0.00,Wunderground v.1.15,2013-04-13 11:38:00,
2013-04-13 06:41:00,34.5,28.7,29.87,WNW,288,11.0,12.0,79,0.00,,,0.00,Wunderground v.1.15,2013-04-13 11:41:00,
2013-04-13 06:47:00,34.5,28.3,29.87,West,269,11.0,13.0,78,0.00,,,0.00,Wunderground v.1.15,2013-04-13 11:47:00,
2013-04-13 06:48:00,34.5,28.3,29.87,WSW,256,11.0,13.0,78,0.00,,,0.00,Wunderground v.1.15,2013-04-13 11:48:00,
2013-04-13 06:54:00,34.5,28.3,29.87,West,261,12.0,16.0,78,0.00,,,0.00,Wunderground v.1.15,2013-04-13 11:54:00,
2013-04-13 06:58:00,34.6,28.1,29.87,WNW,285,12.0,16.0,77,0.00,,,0.00,Wunderground v.1.15,2013-04-13 11:58:00,
2013-04-13 07:03:00,34.5,27.4,29.87,West,276,13.0,17.0,75,0.00,,,0.00,Wunderground v.1.15,2013-04-13 12:03:00,
2013-04-13 07:05:00,34.6,27.8,29.88,WNW,288,12.0,17.0,76,0.00,,,0.00,Wunderground v.1.15,2013-04-13 12:05:00,
2013-04-13 07:10:00,34.5,27.7,29.88,West,275,12.0,14.0,76,0.00,,,0.00,Wunderground v.1.15,2013-04-13 12:10:00,
2013-04-13 07:11:00,34.5,27.7,29.88,West,271,12.0,14.0,76,0.00,,,0.00,Wunderground v.1.15,2013-04-13 12:11:00,
2013-04-13 07:17:00,34.4,27.9,29.88,West,265,11.0,14.0,77,0.00,,,0.00,Wunderground v.1.15,2013-04-13 12:17:00,
2013-04-13 07:18:00,34.4,28.2,29.88,West,264,11.0,14.0,78,0.00,,,0.00,Wunderground v.1.15,2013-04-13 12:18:00,
2013-04-13 07:23:00,34.4,27.3,29.89,WNW,286,11.0,17.0,75,0.00,,,0.00,Wunderground v.1.15,2013-04-13 12:23:00,
2013-04-13 07:25:00,34.4,27.0,29.88,West,272,13.0,17.0,74,0.00,,,0.00,Wunderground v.1.15,2013-04-13 12:25:00,
2013-04-13 07:28:00,34.4,26.6,29.88,West,275,13.0,18.0,73,0.00,,,0.00,Wunderground v.1.15,2013-04-13 12:28:00,
2013-04-13 07:33:00,34.5,27.1,29.89,WSW,254,14.0,15.0,74,0.00,,,0.00,Wunderground v.1.15,2013-04-13 12:33:00,
2013-04-13 07:34:00,34.5,26.7,29.89,West,261,13.0,15.0,73,0.00,,,0.00,Wunderground v.1.15,2013-04-13 12:34:00,
2013-04-13 07:40:00,34.6,26.8,29.88,WSW,249,12.0,12.0,73,0.00,,,0.00,Wunderground v.1.15,2013-04-13 12:40:00,
2013-04-13 07:42:00,34.6,27.5,29.89,West,267,12.0,12.0,75,0.00,,,0.00,Wunderground v.1.15,2013-04-13 12:42:00,
2013-04-13 07:45:00,34.7,27.6,29.89,West,272,11.0,12.0,75,0.00,,,0.00,Wunderground v.1.15,2013-04-13 12:45:00,
2013-04-13 07:47:00,34.7,27.3,29.89,West,270,11.0,12.0,74,0.00,,,0.00,Wunderground v.1.15,2013-04-13 12:47:00,
2013-04-13 07:53:00,34.8,27.7,29.89,West,268,11.0,14.0,75,0.00,,,0.00,Wunderground v.1.15,2013-04-13 12:53:00,
2013-04-13 07:54:00,34.8,27.7,29.89,WSW,258,11.0,14.0,75,0.00,,,0.00,Wunderground v.1.15,2013-04-13 12:54:00,
2013-04-13 07:58:00,35.0,28.2,29.89,WSW,251,11.0,15.0,76,0.00,,,0.00,Wunderground v.1.15,2013-04-13 12:58:00,
2013-04-13 08:01:00,35.0,28.2,29.89,West,269,11.0,11.0,76,0.00,,,0.00,Wunderground v.1.15,2013-04-13 13:01:00,
2013-04-13 08:08:00,35.2,28.1,29.90,WNW,289,12.0,14.0,75,0.00,,,0.00,Wunderground v.1.15,2013-04-13 13:08:00,
2013-04-13 08:12:00,35.2,28.4,29.90,West,277,12.0,17.0,76,0.00,,,0.00,Wunderground v.1.15,2013-04-13 13:12:00,
2013-04-13 08:14:00,35.2,28.4,29.90,West,281,13.0,17.0,76,0.00,,,0.00,Wunderground v.1.15,2013-04-13 13:14:00,
2013-04-13 08:19:00,35.3,28.5,29.90,WSW,253,13.0,17.0,76,0.00,,,0.00,Wunderground v.1.15,2013-04-13 13:19:00,
2013-04-13 08:21:00,35.4,28.3,29.90,WNW,283,13.0,18.0,75,0.00,,,0.00,Wunderground v.1.15,2013-04-13 13:21:00,
2013-04-13 08:28:00,35.7,28.6,29.90,WSW,245,13.0,18.0,75,0.00,,,0.00,Wunderground v.1.15,2013-04-13 13:28:00,
2013-04-13 08:29:00,35.7,28.6,29.90,WNW,286,13.0,18.0,75,0.00,,,0.00,Wunderground v.1.15,2013-04-13 13:29:00,
2013-04-13 08:33:00,35.8,29.3,29.90,WNW,292,13.0,19.0,77,0.00,,,0.00,Wunderground v.1.15,2013-04-13 13:33:00,
2013-04-13 08:35:00,35.9,29.1,29.90,NW,306,13.0,19.0,76,0.00,,,0.00,Wunderground v.1.15,2013-04-13 13:35:00,
2013-04-13 08:40:00,35.9,28.1,29.90,West,269,13.0,14.0,73,0.00,,,0.00,Wunderground v.1.15,2013-04-13 13:40:00,
2013-04-13 08:42:00,35.9,28.1,29.90,West,259,13.0,14.0,73,0.00,,,0.00,Wunderground v.1.15,2013-04-13 13:42:00,
2013-04-13 08:45:00,35.9,28.1,29.91,WSW,256,14.0,21.0,73,0.00,,,0.00,Wunderground v.1.15,2013-04-13 13:45:00,
2013-04-13 08:48:00,36.0,28.2,29.91,NW,312,15.0,21.0,73,0.00,,,0.00,Wunderground v.1.15,2013-04-13 13:48:00,
2013-04-13 08:53:00,36.0,27.8,29.90,West,277,15.0,20.0,72,0.00,,,0.00,Wunderground v.1.15,2013-04-13 13:53:00,
2013-04-13 08:54:00,36.1,27.9,29.91,WNW,284,15.0,20.0,72,0.00,,,0.00,Wunderground v.1.15,2013-04-13 13:54:00,
2013-04-13 08:59:00,36.1,27.3,29.90,West,281,15.0,20.0,70,0.00,,,0.00,Wunderground v.1.15,2013-04-13 13:59:00,
2013-04-13 09:00:00,36.1,27.3,29.90,WNW,293,16.0,16.0,70,0.00,,,0.00,Wunderground v.1.15,2013-04-13 14:00:00,
2013-04-13 09:04:00,36.2,27.0,29.91,West,268,16.0,20.0,69,0.00,,,0.00,Wunderground v.1.15,2013-04-13 14:04:00,
2013-04-13 09:05:00,36.2,27.4,29.90,West,269,16.0,20.0,70,0.00,,,0.00,Wunderground v.1.15,2013-04-13 14:05:00,
2013-04-13 09:12:00,36.4,27.5,29.90,West,271,16.0,21.0,70,0.00,,,0.00,Wunderground v.1.15,2013-04-13 14:12:00,
2013-04-13 09:13:00,36.4,27.9,29.91,West,273,16.0,21.0,71,0.00,,,0.00,Wunderground v.1.15,2013-04-13 14:13:00,
2013-04-13 09:18:00,36.9,28.7,29.91,West,278,15.0,25.0,72,0.00,,,0.00,Wunderground v.1.15,2013-04-13 14:18:00,
2013-04-13 09:21:00,37.1,28.2,29.91,NW,306,15.0,17.0,70,0.00,,,0.00,Wunderground v.1.15,2013-04-13 14:21:00,
2013-04-13 09:23:00,37.1,27.2,29.91,West,267,15.0,17.0,67,0.00,,,0.00,Wunderground v.1.15,2013-04-13 14:23:00,
2013-04-13 09:27:00,37.5,27.9,29.91,WNW,282,15.0,20.0,68,0.00,,,0.00,Wunderground v.1.15,2013-04-13 14:27:00,
2013-04-13 09:29:00,37.6,28.7,29.91,WNW,286,15.0,25.0,70,0.00,,,0.00,Wunderground v.1.15,2013-04-13 14:29:00,
2013-04-13 09:34:00,37.5,27.9,29.91,WNW,287,17.0,20.0,68,0.00,,,0.00,Wunderground v.1.15,2013-04-13 14:34:00,
2013-04-13 09:36:00,37.6,28.0,29.91,West,275,17.0,20.0,68,0.00,,,0.00,Wunderground v.1.15,2013-04-13 14:36:00,
2013-04-13 09:40:00,37.8,27.8,29.91,WNW,282,17.0,18.0,67,0.00,,,0.00,Wunderground v.1.15,2013-04-13 14:40:00,
2013-04-13 09:43:00,37.9,27.5,29.91,NW,309,17.0,24.0,66,0.00,,,0.00,Wunderground v.1.15,2013-04-13 14:43:00,
2013-04-13 09:47:00,37.8,27.1,29.90,WNW,286,19.0,24.0,65,0.00,,,0.00,Wunderground v.1.15,2013-04-13 14:47:00,
2013-04-13 09:49:00,37.7,27.7,29.91,West,276,19.0,24.0,67,0.00,,,0.00,Wunderground v.1.15,2013-04-13 14:49:00,
2013-04-13 09:53:00,37.9,27.9,29.91,WNW,286,19.0,22.0,67,0.00,,,0.00,Wunderground v.1.15,2013-04-13 14:53:00,
2013-04-13 09:54:00,37.9,29.0,29.91,West,259,18.0,22.0,70,0.00,,,0.00,Wunderground v.1.15,2013-04-13 14:54:00,
2013-04-13 10:00:00,38.1,27.4,29.90,WNW,299,17.0,24.0,65,0.00,,,0.00,Wunderground v.1.15,2013-04-13 15:00:00,
2013-04-13 10:02:00,38.1,28.5,29.91,WNW,290,17.0,24.0,68,0.00,,,0.00,Wunderground v.1.15,2013-04-13 15:02:00,
2013-04-13 10:07:00,38.2,27.5,29.91,West,270,17.0,24.0,65,0.00,,,0.00,Wunderground v.1.15,2013-04-13 15:07:00,
2013-04-13 10:10:00,38.3,29.0,29.91,West,270,16.0,16.0,69,0.00,,,0.00,Wunderground v.1.15,2013-04-13 15:10:00,
2013-04-13 10:12:00,38.5,28.5,29.92,WNW,284,16.0,20.0,67,0.00,,,0.00,Wunderground v.1.15,2013-04-13 15:12:00,
2013-04-13 10:17:00,38.6,28.9,29.91,West,270,17.0,25.0,68,0.00,,,0.00,Wunderground v.1.15,2013-04-13 15:17:00,
2013-04-13 10:19:00,38.7,28.3,29.91,West,259,17.0,25.0,66,0.00,,,0.00,Wunderground v.1.15,2013-04-13 15:19:00,
2013-04-13 10:23:00,39.0,28.6,29.91,West,275,16.0,20.0,66,0.00,,,0.00,Wunderground v.1.15,2013-04-13 15:23:00,
2013-04-13 10:25:00,38.9,28.1,29.91,WSW,240,16.0,20.0,65,0.00,,,0.00,Wunderground v.1.15,2013-04-13 15:25:00,
2013-04-13 10:31:00,39.1,30.1,29.91,West,279,14.0,15.0,70,0.00,,,0.00,Wunderground v.1.15,2013-04-13 15:31:00,
2013-04-13 10:32:00,39.2,29.9,29.92,WSW,250,15.0,15.0,69,0.00,,,0.00,Wunderground v.1.15,2013-04-13 15:32:00,
2013-04-13 10:37:00,39.7,30.0,29.92,WNW,283,13.0,16.0,68,0.00,,,0.00,Wunderground v.1.15,2013-04-13 15:37:00,
2013-04-13 10:38:00,39.7,30.0,29.92,WNW,303,13.0,16.0,68,0.00,,,0.00,Wunderground v.1.15,2013-04-13 15:38:00,
2013-04-13 10:43:00,39.6,29.2,29.92,West,281,15.0,18.0,66,0.00,,,0.00,Wunderground v.1.15,2013-04-13 15:43:00,
2013-04-13 10:48:00,39.5,29.8,29.92,West,269,16.0,20.0,68,0.00,,,0.00,Wunderground v.1.15,2013-04-13 15:48:00,
2013-04-13 10:52:00,39.8,29.7,29.92,WNW,290,14.0,19.0,67,0.00,,,0.00,Wunderground v.1.15,2013-04-13 15:52:00,
2013-04-13 10:53:00,39.8,29.4,29.92,WNW,297,14.0,19.0,66,0.00,,,0.00,Wunderground v.1.15,2013-04-13 15:53:00,
2013-04-13 10:59:00,40.2,29.7,29.92,West,272,14.0,19.0,66,0.00,,,0.00,Wunderground v.1.15,2013-04-13 15:59:00,
2013-04-13 11:00:00,40.2,30.1,29.92,WNW,284,14.0,14.0,67,0.00,,,0.00,Wunderground v.1.15,2013-04-13 16:00:00,
2013-04-13 11:04:00,40.2,30.1,29.92,West,271,15.0,22.0,67,0.00,,,0.00,Wunderground v.1.15,2013-04-13 16:04:00,
2013-04-13 11:05:00,40.2,30.1,29.92,WNW,298,15.0,22.0,67,0.00,,,0.00,Wunderground v.1.15,2013-04-13 16:05:00,
2013-04-13 11:12:00,39.9,29.1,29.92,WNW,285,15.0,16.0,65,0.00,,,0.00,Wunderground v.1.15,2013-04-13 16:12:00,
2013-04-13 11:13:00,39.9,29.5,29.92,WNW,288,14.0,16.0,66,0.00,,,0.00,Wunderground v.1.15,2013-04-13 16:13:00,
2013-04-13 11:18:00,40.1,31.1,29.92,West,276,15.0,19.0,70,0.00,,,0.00,Wunderground v.1.15,2013-04-13 16:18:00,
2013-04-13 11:19:00,40.2,30.1,29.92,West,269,14.0,19.0,67,0.00,,,0.00,Wunderground v.1.15,2013-04-13 16:19:00,
2013-04-13 11:25:00,40.8,30.7,29.92,WNW,289,15.0,21.0,67,0.00,,,0.00,Wunderground v.1.15,2013-04-13 16:25:00,
2013-04-13 11:29:00,40.9,30.0,29.92,WNW,289,15.0,21.0,65,0.00,,,0.00,Wunderground v.1.15,2013-04-13 16:29:00,
2013-04-13 11:31:00,40.9,31.1,29.92,NW,305,14.0,16.0,68,0.00,,,0.00,Wunderground v.1.15,2013-04-13 16:31:00,
2013-04-13 11:34:00,40.9,30.8,29.92,West,265,14.0,19.0,67,0.00,,,0.00,Wunderground v.1.15,2013-04-13 16:34:00,
2013-04-13 11:36:00,41.1,30.2,29.93,West,273,14.0,19.0,65,0.00,,,0.00,Wunderground v.1.15,2013-04-13 16:36:00,
2013-04-13 11:40:00,41.3,31.9,29.92,West,267,14.0,14.0,69,0.00,,,0.00,Wunderground v.1.15,2013-04-13 16:40:00,
2013-04-13 11:42:00,41.3,31.5,29.92,West,274,14.0,16.0,68,0.00,,,0.00,Wunderground v.1.15,2013-04-13 16:42:00,
2013-04-13 11:45:00,41.3,30.8,29.92,West,275,15.0,16.0,66,0.00,,,0.00,Wunderground v.1.15,2013-04-13 16:45:00,
2013-04-13 11:47:00,41.4,30.5,29.92,WNW,295,14.0,16.0,65,0.00,,,0.00,Wunderground v.1.15,2013-04-13 16:47:00,
2013-04-13 11:52:00,41.9,31.4,29.92,WNW,292,14.0,16.0,66,0.00,,,0.00,Wunderground v.1.15,2013-04-13 16:52:00,
2013-04-13 11:53:00,42.0,32.6,29.92,WNW,286,14.0,16.0,69,0.00,,,0.00,Wunderground v.1.15,2013-04-13 16:53:00,
2013-04-13 11:58:00,41.9,31.0,29.92,West,281,15.0,19.0,65,0.00,,,0.00,Wunderground v.1.15,2013-04-13 16:58:00,
2013-04-13 12:01:00,42.1,32.3,29.92,West,263,14.0,14.0,68,0.00,,,0.00,Wunderground v.1.15,2013-04-13 17:01:00,
2013-04-13 12:06:00,42.4,32.2,29.92,West,263,13.0,14.0,67,0.00,,,0.00,Wunderground v.1.15,2013-04-13 17:06:00,
2013-04-13 12:07:00,42.4,31.5,29.92,West,273,13.0,14.0,65,0.00,,,0.00,Wunderground v.1.15,2013-04-13 17:07:00,
2013-04-13 12:11:00,42.3,31.4,29.92,WNW,287,15.0,21.0,65,0.00,,,0.00,Wunderground v.1.15,2013-04-13 17:11:00,
2013-04-13 12:14:00,42.5,32.3,29.92,WNW,287,15.0,21.0,67,0.00,,,0.00,Wunderground v.1.15,2013-04-13 17:14:00,
2013-04-13 12:20:00,42.4,31.5,29.92,West,278,15.0,17.0,65,0.00,,,0.00,Wunderground v.1.15,2013-04-13 17:20:00,
2013-04-13 12:25:00,42.4,31.8,29.92,WSW,257,15.0,17.0,66,0.00,,,0.00,Wunderground v.1.15,2013-04-13 17:25:00,
2013-04-13 12:28:00,42.6,33.5,29.92,WNW,282,14.0,20.0,70,0.00,,,0.00,Wunderground v.1.15,2013-04-13 17:28:00,
2013-04-13 12:32:00,43.1,33.3,29.92,West,260,14.0,14.0,68,0.00,,,0.00,Wunderground v.1.15,2013-04-13 17:32:00,
2013-04-13 12:38:00,43.2,32.6,29.92,West,262,13.0,14.0,66,0.00,,,0.00,Wunderground v.1.15,2013-04-13 17:38:00,
2013-04-13 12:39:00,43.1,32.5,29.92,West,266,12.0,14.0,66,0.00,,,0.00,Wunderground v.1.15,2013-04-13 17:39:00,
2013-04-13 12:44:00,43.7,32.3,29.91,West,281,13.0,21.0,64,0.00,,,0.00,Wunderground v.1.15,2013-04-13 17:44:00,
2013-04-13 12:49:00,43.9,33.3,29.91,West,269,14.0,21.0,66,0.00,,,0.00,Wunderground v.1.15,2013-04-13 17:49:00,
2013-04-13 12:50:00,43.9,32.9,29.91,West,277,14.0,14.0,65,0.00,,,0.00,Wunderground v.1.15,2013-04-13 17:50:00,
2013-04-13 12:55:00,43.7,31.9,29.91,West,279,13.0,14.0,63,0.00,,,0.00,Wunderground v.1.15,2013-04-13 17:55:00,
2013-04-13 12:56:00,43.6,31.8,29.91,NW,315,13.0,17.0,63,0.00,,,0.00,Wunderground v.1.15,2013-04-13 17:56:00,
2013-04-13 13:02:00,43.6,31.8,29.91,WNW,298,13.0,16.0,63,0.00,,,0.00,Wunderground v.1.15,2013-04-13 18:02:00,
2013-04-13 13:03:00,43.6,31.4,29.91,WNW,302,13.0,16.0,62,0.00,,,0.00,Wunderground v.1.15,2013-04-13 18:03:00,
2013-04-13 13:08:00,44.0,33.4,29.91,West,276,14.0,16.0,66,0.00,,,0.00,Wunderground v.1.15,2013-04-13 18:08:00,
2013-04-13 13:10:00,44.1,33.1,29.91,West,279,13.0,13.0,65,0.00,,,0.00,Wunderground v.1.15,2013-04-13 18:10:00,
2013-04-13 13:13:00,44.3,33.3,29.90,WSW,257,13.0,17.0,65,0.00,,,0.00,Wunderground v.1.15,2013-04-13 18:13:00,
2013-04-13 13:18:00,45.0,34.7,29.91,West,279,12.0,17.0,67,0.00,,,0.00,Wunderground v.1.15,2013-04-13 18:18:00,
2013-04-13 13:19:00,45.0,33.5,29.91,WNW,303,12.0,17.0,64,0.00,,,0.00,Wunderground v.1.15,2013-04-13 18:19:00,
2013-04-13 13:23:00,44.7,33.3,29.91,WSW,257,13.0,17.0,64,0.00,,,0.00,Wunderground v.1.15,2013-04-13 18:23:00,
2013-04-13 13:24:00,44.7,34.0,29.91,WSW,257,13.0,17.0,66,0.00,,,0.00,Wunderground v.1.15,2013-04-13 18:24:00,
2013-04-13 13:27:00,44.8,33.4,29.91,WNW,291,14.0,17.0,64,0.00,,,0.00,Wunderground v.1.15,2013-04-13 18:27:00,
2013-04-13 13:28:00,44.8,33.7,29.91,WNW,291,14.0,21.0,65,0.00,,,0.00,Wunderground v.1.15,2013-04-13 18:28:00,
2013-04-13 13:29:00,44.8,33.4,29.91,West,275,14.0,21.0,64,0.00,,,0.00,Wunderground v.1.15,2013-04-13 18:29:00,
2013-04-13 13:30:00,44.9,33.5,29.91,West,265,14.0,14.0,64,0.00,,,0.00,Wunderground v.1.15,2013-04-13 18:30:00,
2013-04-13 13:34:00,45.4,35.8,29.91,WSW,250,13.0,15.0,69,0.00,,,0.00,Wunderground v.1.15,2013-04-13 18:34:00,
2013-04-13 13:35:00,45.5,34.4,29.91,WNW,300,13.0,17.0,65,0.00,,,0.00,Wunderground v.1.15,2013-04-13 18:35:00,
2013-04-13 13:36:00,45.6,34.5,29.91,WNW,300,13.0,17.0,65,0.00,,,0.00,Wunderground v.1.15,2013-04-13 18:36:00,
2013-04-13 13:37:00,45.7,34.6,29.91,WNW,297,13.0,17.0,65,0.00,,,0.00,Wunderground v.1.15,2013-04-13 18:37:00,
2013-04-13 13:40:00,45.4,33.1,29.91,West,260,14.0,14.0,62,0.00,,,0.00,Wunderground v.1.15,2013-04-13 18:40:00,
2013-04-13 13:41:00,45.2,33.3,29.91,West,275,13.0,14.0,63,0.00,,,0.00,Wunderground v.1.15,2013-04-13 18:41:00,
2013-04-13 13:42:00,45.1,32.8,29.91,WNW,282,13.0,14.0,62,0.00,,,0.00,Wunderground v.1.15,2013-04-13 18:42:00,
2013-04-13 13:46:00,45.1,34.8,29.91,West,267,13.0,14.0,67,0.00,,,0.00,Wunderground v.1.15,2013-04-13 18:46:00,
2013-04-13 13:47:00,45.4,35.1,29.91,WSW,240,13.0,14.0,67,0.00,,,0.00,Wunderground v.1.15,2013-04-13 18:47:00,
2013-04-13 13:48:00,45.5,35.2,29.91,WSW,251,12.0,14.0,67,0.00,,,0.00,Wunderground v.1.15,2013-04-13 18:48:00,
2013-04-13 13:52:00,45.2,34.1,29.90,West,281,12.0,13.0,65,0.00,,,0.00,Wunderground v.1.15,2013-04-13 18:52:00,
2013-04-13 13:53:00,45.1,33.2,29.90,West,265,12.0,15.0,63,0.00,,,0.00,Wunderground v.1.15,2013-04-13 18:53:00,
2013-04-13 13:55:00,45.2,34.9,29.91,West,263,13.0,15.0,67,0.00,,,0.00,Wunderground v.1.15,2013-04-13 18:55:00,
2013-04-13 13:58:00,45.2,34.1,29.91,WSW,254,12.0,15.0,65,0.00,,,0.00,Wunderground v.1.15,2013-04-13 18:58:00,
2013-04-13 13:59:00,45.2,34.9,29.91,WNW,293,13.0,15.0,67,0.00,,,0.00,Wunderground v.1.15,2013-04-13 18:59:00,
2013-04-13 14:04:00,45.9,36.3,29.91,WSW,248,12.0,15.0,69,0.00,,,0.00,Wunderground v.1.15,2013-04-13 19:04:00,
2013-04-13 14:06:00,46.2,35.8,29.90,WSW,256,12.0,15.0,67,0.00,,,0.00,Wunderground v.1.15,2013-04-13 19:06:00,
2013-04-13 14:08:00,46.2,34.3,29.90,West,263,11.0,15.0,63,0.00,,,0.00,Wunderground v.1.15,2013-04-13 19:08:00,
2013-04-13 14:10:00,46.3,35.6,29.90,WSW,255,11.0,16.0,66,0.00,,,0.00,Wunderground v.1.15,2013-04-13 19:10:00,
2013-04-13 14:12:00,46.3,35.2,29.90,WSW,252,13.0,19.0,65,0.00,,,0.00,Wunderground v.1.15,2013-04-13 19:12:00,
2013-04-13 14:13:00,46.3,35.2,29.90,WSW,258,13.0,19.0,65,0.00,,,0.00,Wunderground v.1.15,2013-04-13 19:13:00,
2013-04-13 14:15:00,46.2,34.7,29.90,WSW,244,13.0,19.0,64,0.00,,,0.00,Wunderground v.1.15,2013-04-13 19:15:00,
2013-04-13 14:16:00,46.1,35.4,29.90,WSW,243,13.0,19.0,66,0.00,,,0.00,Wunderground v.1.15,2013-04-13 19:16:00,
2013-04-13 14:18:00,46.0,34.9,29.90,West,264,14.0,19.0,65,0.00,,,0.00,Wunderground v.1.15,2013-04-13 19:18:00,
2013-04-13 14:22:00,46.1,34.2,29.90,West,259,13.0,16.0,63,0.00,,,0.00,Wunderground v.1.15,2013-04-13 19:22:00,
2013-04-13 14:23:00,46.4,36.4,29.91,West,269,13.0,16.0,68,0.00,,,0.00,Wunderground v.1.15,2013-04-13 19:23:00,
2013-04-13 14:24:00,46.5,34.6,29.91,West,268,13.0,16.0,63,0.00,,,0.00,Wunderground v.1.15,2013-04-13 19:24:00,
2013-04-13 14:27:00,46.5,34.2,29.91,WSW,257,12.0,16.0,62,0.00,,,0.00,Wunderground v.1.15,2013-04-13 19:27:00,
2013-04-13 14:28:00,46.5,35.4,29.91,West,273,11.0,16.0,65,0.00,,,0.00,Wunderground v.1.15,2013-04-13 19:28:00,
2013-04-13 14:31:00,46.1,34.2,29.91,WNW,300,11.0,17.0,63,0.00,,,0.00,Wunderground v.1.15,2013-04-13 19:31:00,
2013-04-13 14:32:00,46.1,34.2,29.90,WNW,290,12.0,17.0,63,0.00,,,0.00,Wunderground v.1.15,2013-04-13 19:32:00,
2013-04-13 14:33:00,46.0,33.7,29.90,WNW,286,12.0,17.0,62,0.00,,,0.00,Wunderground v.1.15,2013-04-13 19:33:00,
2013-04-13 14:36:00,46.1,34.6,29.90,WSW,258,12.0,17.0,64,0.00,,,0.00,Wunderground v.1.15,2013-04-13 19:36:00,
2013-04-13 14:37:00,46.3,36.3,29.90,WSW,255,12.0,17.0,68,0.00,,,0.00,Wunderground v.1.15,2013-04-13 19:37:00,
2013-04-13 14:39:00,46.9,36.9,29.90,West,266,12.0,17.0,68,0.00,,,0.00,Wunderground v.1.15,2013-04-13 19:39:00,
2013-04-13 14:40:00,47.1,36.3,29.90,WSW,249,12.0,14.0,66,0.00,,,0.00,Wunderground v.1.15,2013-04-13 19:40:00,
2013-04-13 14:44:00,47.2,36.4,29.90,West,261,13.0,20.0,66,0.00,,,0.00,Wunderground v.1.15,2013-04-13 19:44:00,
2013-04-13 14:47:00,47.4,36.2,29.90,West,271,12.0,20.0,65,0.00,,,0.00,Wunderground v.1.15,2013-04-13 19:47:00,
2013-04-13 14:49:00,47.3,34.1,29.90,WNW,283,12.0,20.0,60,0.00,,,0.00,Wunderground v.1.15,2013-04-13 19:49:00,
2013-04-13 14:53:00,47.3,35.3,29.90,WNW,289,11.0,17.0,63,0.00,,,0.00,Wunderground v.1.15,2013-04-13 19:53:00,
2013-04-13 14:54:00,47.4,35.8,29.90,WSW,257,11.0,17.0,64,0.00,,,0.00,Wunderground v.1.15,2013-04-13 19:54:00,
2013-04-13 14:55:00,47.3,34.1,29.90,WSW,251,11.0,17.0,60,0.00,,,0.00,Wunderground v.1.15,2013-04-13 19:55:00,
2013-04-13 14:57:00,47.4,36.6,29.90,WSW,250,11.0,17.0,66,0.00,,,0.00,Wunderground v.1.15,2013-04-13 19:57:00,
2013-04-13 14:59:00,47.4,36.2,29.90,West,259,12.0,17.0,65,0.00,,,0.00,Wunderground v.1.15,2013-04-13 19:59:00,
2013-04-13 15:00:00,47.3,35.3,29.90,West,279,12.0,15.0,63,0.00,,,0.00,Wunderground v.1.15,2013-04-13 20:00:00,
2013-04-13 15:02:00,47.3,34.9,29.90,West,281,12.0,15.0,62,0.00,,,0.00,Wunderground v.1.15,2013-04-13 20:02:00,
2013-04-13 15:03:00,47.2,35.2,29.90,West,277,12.0,15.0,63,0.00,,,0.00,Wunderground v.1.15,2013-04-13 20:03:00,
2013-04-13 15:05:00,47.2,34.4,29.90,West,265,12.0,15.0,61,0.00,,,0.00,Wunderground v.1.15,2013-04-13 20:05:00,
2013-04-13 15:06:00,47.2,34.8,29.90,WNW,301,12.0,15.0,62,0.00,,,0.00,Wunderground v.1.15,2013-04-13 20:06:00,
2013-04-13 15:08:00,47.2,34.4,29.89,West,275,10.0,18.0,61,0.00,,,0.00,Wunderground v.1.15,2013-04-13 20:08:00,
2013-04-13 15:11:00,47.5,35.9,29.89,WNW,297,11.0,14.0,64,0.00,,,0.00,Wunderground v.1.15,2013-04-13 20:11:00,
2013-04-13 15:12:00,47.7,36.1,29.89,WSW,254,11.0,18.0,64,0.00,,,0.00,Wunderground v.1.15,2013-04-13 20:12:00,
2013-04-13 15:13:00,47.7,35.7,29.89,WSW,248,11.0,18.0,63,0.00,,,0.00,Wunderground v.1.15,2013-04-13 20:13:00,
2013-04-13 15:14:00,47.7,35.7,29.90,WSW,247,12.0,18.0,63,0.00,,,0.00,Wunderground v.1.15,2013-04-13 20:14:00,
2013-04-13 15:19:00,47.1,33.9,29.89,WNW,295,12.0,18.0,60,0.00,,,0.00,Wunderground v.1.15,2013-04-13 20:19:00,
2013-04-13 15:20:00,47.0,33.4,29.89,WNW,292,13.0,13.0,59,0.00,,,0.00,Wunderground v.1.15,2013-04-13 20:20:00,
2013-04-13 15:22:00,46.9,34.1,29.89,WNW,298,13.0,17.0,61,0.00,,,0.00,Wunderground v.1.15,2013-04-13 20:22:00,
2013-04-13 15:24:00,47.0,34.6,29.89,WNW,282,12.0,17.0,62,0.00,,,0.00,Wunderground v.1.15,2013-04-13 20:24:00,
2013-04-13 15:27:00,47.3,35.3,29.89,WSW,250,12.0,17.0,63,0.00,,,0.00,Wunderground v.1.15,2013-04-13 20:27:00,
2013-04-13 15:29:00,47.6,35.6,29.89,WSW,253,13.0,17.0,63,0.00,,,0.00,Wunderground v.1.15,2013-04-13 20:29:00,
2013-04-13 15:31:00,47.6,33.5,29.89,West,260,13.0,18.0,58,0.00,,,0.00,Wunderground v.1.15,2013-04-13 20:31:00,
2013-04-13 15:34:00,47.6,35.6,29.89,WNW,300,12.0,18.0,63,0.00,,,0.00,Wunderground v.1.15,2013-04-13 20:34:00,
2013-04-13 15:35:00,47.6,34.8,29.89,WNW,298,12.0,18.0,61,0.00,,,0.00,Wunderground v.1.15,2013-04-13 20:35:00,
2013-04-13 15:37:00,47.5,33.9,29.89,West,261,13.0,18.0,59,0.00,,,0.00,Wunderground v.1.15,2013-04-13 20:37:00,
2013-04-13 15:40:00,47.8,35.0,29.89,WSW,255,11.0,11.0,61,0.00,,,0.00,Wunderground v.1.15,2013-04-13 20:40:00,
2013-04-13 15:41:00,47.8,35.0,29.88,WSW,243,11.0,13.0,61,0.00,,,0.00,Wunderground v.1.15,2013-04-13 20:41:00,
2013-04-13 15:42:00,47.8,35.0,29.89,WSW,253,11.0,15.0,61,0.00,,,0.00,Wunderground v.1.15,2013-04-13 20:42:00,
2013-04-13 15:43:00,47.9,35.1,29.89,WSW,257,11.0,15.0,61,0.00,,,0.00,Wunderground v.1.15,2013-04-13 20:43:00,
2013-04-13 15:46:00,48.2,35.0,29.89,West,275,11.0,16.0,60,0.00,,,0.00,Wunderground v.1.15,2013-04-13 20:46:00,
2013-04-13 15:47:00,48.3,34.2,29.88,West,261,11.0,16.0,58,0.00,,,0.00,Wunderground v.1.15,2013-04-13 20:47:00,
2013-04-13 15:48:00,48.3,35.5,29.88,West,260,11.0,16.0,61,0.00,,,0.00,Wunderground v.1.15,2013-04-13 20:48:00,
2013-04-13 15:53:00,48.1,34.9,29.88,West,269,12.0,13.0,60,0.00,,,0.00,Wunderground v.1.15,2013-04-13 20:53:00,
2013-04-13 15:54:00,48.1,34.9,29.89,WSW,250,12.0,15.0,60,0.00,,,0.00,Wunderground v.1.15,2013-04-13 20:54:00,
2013-04-13 15:56:00,48.1,34.9,29.88,WSW,257,12.0,15.0,60,0.00,,,0.00,Wunderground v.1.15,2013-04-13 20:56:00,
2013-04-13 16:00:00,47.9,35.1,29.88,SW,227,12.0,12.0,61,0.00,,,0.00,Wunderground v.1.15,2013-04-13 21:00:00,
2013-04-13 16:02:00,47.9,35.5,29.88,WSW,238,12.0,16.0,62,0.00,,,0.00,Wunderground v.1.15,2013-04-13 21:02:00,
2013-04-13 16:03:00,48.1,35.7,29.88,West,271,13.0,16.0,62,0.00,,,0.00,Wunderground v.1.15,2013-04-13 21:03:00,
2013-04-13 16:08:00,48.5,35.7,29.88,WNW,300,13.0,16.0,61,0.00,,,0.00,Wunderground v.1.15,2013-04-13 21:08:00,
2013-04-13 16:09:00,48.5,34.8,29.88,WNW,299,12.0,16.0,59,0.00,,,0.00,Wunderground v.1.15,2013-04-13 21:09:00,
2013-04-13 16:13:00,48.6,34.9,29.88,WSW,243,11.0,12.0,59,0.00,,,0.00,Wunderground v.1.15,2013-04-13 21:13:00,
2013-04-13 16:14:00,48.7,36.3,29.88,West,279,10.0,12.0,62,0.00,,,0.00,Wunderground v.1.15,2013-04-13 21:14:00,
2013-04-13 16:17:00,49.2,36.3,29.88,WSW,248,9.0,12.0,61,0.00,,,0.00,Wunderground v.1.15,2013-04-13 21:17:00,
2013-04-13 16:19:00,49.3,36.0,29.88,WSW,246,10.0,20.0,60,0.00,,,0.00,Wunderground v.1.15,2013-04-13 21:19:00,
2013-04-13 16:21:00,49.2,36.7,29.88,WSW,252,12.0,20.0,62,0.00,,,0.00,Wunderground v.1.15,2013-04-13 21:21:00,
2013-04-13 16:22:00,49.2,35.9,29.88,West,262,12.0,20.0,60,0.00,,,0.00,Wunderground v.1.15,2013-04-13 21:22:00,
2013-04-13 16:25:00,49.4,36.5,29.88,WNW,296,14.0,20.0,61,0.00,,,0.00,Wunderground v.1.15,2013-04-13 21:25:00,
2013-04-13 16:29:00,49.4,35.2,29.88,West,278,14.0,20.0,58,0.00,,,0.00,Wunderground v.1.15,2013-04-13 21:29:00,
2013-04-13 16:30:00,49.4,35.2,29.88,WSW,238,14.0,16.0,58,0.00,,,0.00,Wunderground v.1.15,2013-04-13 21:30:00,
2013-04-13 16:32:00,49.1,35.4,29.88,SW,233,13.0,17.0,59,0.00,,,0.00,Wunderground v.1.15,2013-04-13 21:32:00,
2013-04-13 16:33:00,49.0,34.9,29.88,SW,223,13.0,17.0,58,0.00,,,0.00,Wunderground v.1.15,2013-04-13 21:33:00,
2013-04-13 16:37:00,48.7,35.0,29.88,WSW,244,14.0,19.0,59,0.00,,,0.00,Wunderground v.1.15,2013-04-13 21:37:00,
2013-04-13 16:38:00,48.7,35.4,29.88,SW,234,14.0,19.0,60,0.00,,,0.00,Wunderground v.1.15,2013-04-13 21:38:00,
2013-04-13 16:39:00,48.7,35.0,29.88,SW,234,14.0,19.0,59,0.00,,,0.00,Wunderground v.1.15,2013-04-13 21:39:00,
2013-04-13 16:41:00,48.8,35.1,29.88,WSW,244,14.0,14.0,59,0.00,,,0.00,Wunderground v.1.15,2013-04-13 21:41:00,
2013-04-13 16:43:00,48.9,36.4,29.88,WSW,254,13.0,14.0,62,0.00,,,0.00,Wunderground v.1.15,2013-04-13 21:43:00,
2013-04-13 16:44:00,49.0,36.1,29.88,WSW,254,13.0,14.0,61,0.00,,,0.00,Wunderground v.1.15,2013-04-13 21:44:00,
2013-04-13 16:48:00,49.0,36.1,29.88,WSW,238,12.0,14.0,61,0.00,,,0.00,Wunderground v.1.15,2013-04-13 21:48:00,
2013-04-13 16:50:00,49.0,35.7,29.88,SW,236,12.0,19.0,60,0.00,,,0.00,Wunderground v.1.15,2013-04-13 21:50:00,
2013-04-13 16:51:00,49.0,36.1,29.88,WSW,256,13.0,19.0,61,0.00,,,0.00,Wunderground v.1.15,2013-04-13 21:51:00,
2013-04-13 16:53:00,49.2,36.3,29.88,WSW,240,14.0,19.0,61,0.00,,,0.00,Wunderground v.1.15,2013-04-13 21:53:00,
2013-04-13 16:56:00,49.2,36.3,29.88,West,262,15.0,19.0,61,0.00,,,0.00,Wunderground v.1.15,2013-04-13 21:56:00,
2013-04-13 16:57:00,49.3,36.0,29.88,SW,234,14.0,19.0,60,0.00,,,0.00,Wunderground v.1.15,2013-04-13 21:57:00,
2013-04-13 17:00:00,49.6,35.8,29.88,West,259,13.0,14.0,59,0.00,,,0.00,Wunderground v.1.15,2013-04-13 22:00:00,
2013-04-13 17:01:00,49.6,35.0,29.88,WSW,252,13.0,14.0,57,0.00,,,0.00,Wunderground v.1.15,2013-04-13 22:01:00,
2013-04-13 17:04:00,49.8,35.2,29.88,WNW,289,12.0,14.0,57,0.00,,,0.00,Wunderground v.1.15,2013-04-13 22:04:00,
2013-04-13 17:05:00,49.9,35.3,29.87,WSW,242,12.0,16.0,57,0.00,,,0.00,Wunderground v.1.15,2013-04-13 22:05:00,
2013-04-13 17:06:00,49.9,35.3,29.87,WSW,258,12.0,16.0,57,0.00,,,0.00,Wunderground v.1.15,2013-04-13 22:06:00,
2013-04-13 17:11:00,50.0,35.4,29.87,West,273,12.0,13.0,57,0.00,,,0.00,Wunderground v.1.15,2013-04-13 22:11:00,
2013-04-13 17:12:00,50.0,35.8,29.87,WSW,246,12.0,13.0,58,0.00,,,0.00,Wunderground v.1.15,2013-04-13 22:12:00,
2013-04-13 17:13:00,50.0,35.4,29.87,West,261,11.0,13.0,57,0.00,,,0.00,Wunderground v.1.15,2013-04-13 22:13:00,
2013-04-13 17:14:00,50.0,36.2,29.87,West,268,11.0,13.0,59,0.00,,,0.00,Wunderground v.1.15,2013-04-13 22:14:00,
2013-04-13 17:19:00,50.0,36.2,29.87,West,265,9.0,15.0,59,0.00,,,0.00,Wunderground v.1.15,2013-04-13 22:19:00,
2013-04-13 17:20:00,50.0,36.2,29.87,WSW,254,9.0,9.0,59,0.00,,,0.00,Wunderground v.1.15,2013-04-13 22:20:00,
2013-04-13 17:21:00,50.0,35.8,29.88,WSW,257,9.0,9.0,58,0.00,,,0.00,Wunderground v.1.15,2013-04-13 22:21:00,
2013-04-13 17:26:00,50.0,34.9,29.87,WSW,246,10.0,14.0,56,0.00,,,0.00,Wunderground v.1.15,2013-04-13 22:26:00,
2013-04-13 17:27:00,50.0,36.2,29.87,SW,232,10.0,15.0,59,0.00,,,0.00,Wunderground v.1.15,2013-04-13 22:27:00,
2013-04-13 17:28:00,50.0,35.4,29.87,WSW,250,11.0,15.0,57,0.00,,,0.00,Wunderground v.1.15,2013-04-13 22:28:00,
2013-04-13 17:30:00,50.0,36.2,29.87,WSW,238,11.0,15.0,59,0.00,,,0.00,Wunderground v.1.15,2013-04-13 22:30:00,
2013-04-13 17:31:00,49.9,36.1,29.87,WSW,252,12.0,15.0,59,0.00,,,0.00,Wunderground v.1.15,2013-04-13 22:31:00,
2013-04-13 17:33:00,49.8,36.0,29.87,WSW,254,11.0,15.0,59,0.00,,,0.00,Wunderground v.1.15,2013-04-13 22:33:00,
2013-04-13 17:34:00,49.8,35.2,29.87,WSW,238,11.0,15.0,57,0.00,,,0.00,Wunderground v.1.15,2013-04-13 22:34:00,
2013-04-13 17:37:00,49.8,34.3,29.87,WSW,238,11.0,15.0,55,0.00,,,0.00,Wunderground v.1.15,2013-04-13 22:37:00,
2013-04-13 17:40:00,49.8,36.0,29.87,West,277,10.0,10.0,59,0.00,,,0.00,Wunderground v.1.15,2013-04-13 22:40:00,
2013-04-13 17:43:00,50.0,36.2,29.87,WNW,282,10.0,10.0,59,0.00,,,0.00,Wunderground v.1.15,2013-04-13 22:43:00,
2013-04-13 17:44:00,50.0,37.5,29.87,West,270,9.0,10.0,62,0.00,,,0.00,Wunderground v.1.15,2013-04-13 22:44:00,
2013-04-13 17:48:00,49.9,36.6,29.87,WSW,245,7.0,10.0,60,0.00,,,0.00,Wunderground v.1.15,2013-04-13 22:48:00,
2013-04-13 17:50:00,49.9,37.0,29.87,WSW,248,6.0,13.0,61,0.00,,,0.00,Wunderground v.1.15,2013-04-13 22:50:00,
2013-04-13 17:51:00,49.9,36.1,29.87,WSW,251,6.0,14.0,59,0.00,,,0.00,Wunderground v.1.15,2013-04-13 22:51:00,
2013-04-13 17:54:00,49.7,35.9,29.87,WSW,257,7.0,14.0,59,0.00,,,0.00,Wunderground v.1.15,2013-04-13 22:54:00,
2013-04-13 17:56:00,49.5,35.8,29.88,WSW,253,8.0,14.0,59,0.00,,,0.00,Wunderground v.1.15,2013-04-13 22:56:00,
2013-04-13 17:59:00,49.3,35.1,29.87,West,259,9.0,14.0,58,0.00,,,0.00,Wunderground v.1.15,2013-04-13 22:59:00,
2013-04-13 18:02:00,49.3,36.0,29.87,West,259,8.0,9.0,60,0.00,,,0.00,Wunderground v.1.15,2013-04-13 23:02:00,
2013-04-13 18:04:00,49.3,36.0,29.87,West,259,7.0,9.0,60,0.00,,,0.00,Wunderground v.1.15,2013-04-13 23:04:00,
2013-04-13 18:05:00,49.3,35.1,29.88,WSW,253,7.0,11.0,58,0.00,,,0.00,Wunderground v.1.15,2013-04-13 23:05:00,
2013-04-13 18:06:00,49.3,36.0,29.88,WSW,245,7.0,11.0,60,0.00,,,0.00,Wunderground v.1.15,2013-04-13 23:06:00,
2013-04-13 18:09:00,49.2,35.9,29.87,WSW,252,7.0,11.0,60,0.00,,,0.00,Wunderground v.1.15,2013-04-13 23:09:00,
2013-04-13 18:11:00,49.1,36.2,29.87,WSW,254,8.0,8.0,61,0.00,,,0.00,Wunderground v.1.15,2013-04-13 23:11:00,
2013-04-13 18:12:00,49.1,36.6,29.87,WSW,253,8.0,10.0,62,0.00,,,0.00,Wunderground v.1.15,2013-04-13 23:12:00,
2013-04-13 18:13:00,49.0,35.7,29.87,WSW,252,8.0,10.0,60,0.00,,,0.00,Wunderground v.1.15,2013-04-13 23:13:00,
2013-04-13 18:14:00,49.0,35.3,29.87,WSW,247,9.0,10.0,59,0.00,,,0.00,Wunderground v.1.15,2013-04-13 23:14:00,
2013-04-13 18:17:00,48.9,35.2,29.87,WSW,244,9.0,12.0,59,0.00,,,0.00,Wunderground v.1.15,2013-04-13 23:17:00,
2013-04-13 18:19:00,48.9,35.6,29.87,WSW,241,9.0,12.0,60,0.00,,,0.00,Wunderground v.1.15,2013-04-13 23:19:00,
2013-04-13 18:21:00,48.8,36.8,29.87,WSW,247,9.0,9.0,63,0.00,,,0.00,Wunderground v.1.15,2013-04-13 23:21:00,
2013-04-13 18:25:00,48.8,36.4,29.87,WSW,254,8.0,13.0,62,0.00,,,0.00,Wunderground v.1.15,2013-04-13 23:25:00,
2013-04-13 18:26:00,48.7,36.3,29.87,West,266,8.0,13.0,62,0.00,,,0.00,Wunderground v.1.15,2013-04-13 23:26:00,
2013-04-13 18:28:00,48.7,35.8,29.87,WSW,257,7.0,13.0,61,0.00,,,0.00,Wunderground v.1.15,2013-04-13 23:28:00,
2013-04-13 18:29:00,48.7,36.3,29.87,WSW,256,6.0,13.0,62,0.00,,,0.00,Wunderground v.1.15,2013-04-13 23:29:00,
2013-04-13 18:35:00,48.6,37.0,29.87,WSW,247,6.0,7.0,64,0.00,,,0.00,Wunderground v.1.15,2013-04-13 23:35:00,
2013-04-13 18:36:00,48.5,36.5,29.87,WSW,247,6.0,7.0,63,0.00,,,0.00,Wunderground v.1.15,2013-04-13 23:36:00,
2013-04-13 18:38:00,48.5,36.1,29.87,West,260,6.0,7.0,62,0.00,,,0.00,Wunderground v.1.15,2013-04-13 23:38:00,
2013-04-13 18:41:00,48.5,35.7,29.87,WSW,248,6.0,7.0,61,0.00,,,0.00,Wunderground v.1.15,2013-04-13 23:41:00,
2013-04-13 18:42:00,48.5,36.5,29.86,WSW,248,6.0,7.0,63,0.00,,,0.00,Wunderground v.1.15,2013-04-13 23:42:00,
2013-04-13 18:43:00,48.5,36.1,29.87,WSW,248,6.0,7.0,62,0.00,,,0.00,Wunderground v.1.15,2013-04-13 23:43:00,
2013-04-13 18:46:00,48.5,36.9,29.87,WSW,248,6.0,7.0,64,0.00,,,0.00,Wunderground v.1.15,2013-04-13 23:46:00,
2013-04-13 18:49:00,48.5,36.5,29.87,West,274,5.0,7.0,63,0.00,,,0.00,Wunderground v.1.15,2013-04-13 23:49:00,
2013-04-13 18:50:00,48.5,36.1,29.87,West,269,5.0,5.0,62,0.00,,,0.00,Wunderground v.1.15,2013-04-13 23:50:00,
2013-04-13 18:54:00,48.5,36.5,29.88,West,271,5.0,7.0,63,0.00,,,0.00,Wunderground v.1.15,2013-04-13 23:54:00,
2013-04-13 18:55:00,48.4,36.4,29.87,West,271,4.0,7.0,63,0.00,,,0.00,Wunderground v.1.15,2013-04-13 23:55:00,
2013-04-13 18:56:00,48.4,36.4,29.87,West,271,4.0,7.0,63,0.00,,,0.00,Wunderground v.1.15,2013-04-13 23:56:00,
2013-04-13 18:57:00,48.4,36.4,29.87,West,271,4.0,7.0,63,0.00,,,0.00,Wunderground v.1.15,2013-04-13 23:57:00,
2013-04-13 18:59:00,48.4,36.4,29.87,West,271,4.0,7.0,63,0.00,,,0.00,Wunderground v.1.15,2013-04-13 23:59:00,
2013-04-13 19:04:00,48.3,36.7,29.87,West,269,4.0,5.0,64,0.00,,,0.00,Wunderground v.1.15,2013-04-14 00:04:00,
2013-04-13 19:05:00,48.3,36.7,29.87,West,267,4.0,5.0,64,0.00,,,0.00,Wunderground v.1.15,2013-04-14 00:05:00,
2013-04-13 19:06:00,48.3,37.1,29.87,West,267,4.0,5.0,65,0.00,,,0.00,Wunderground v.1.15,2013-04-14 00:06:00,
2013-04-13 19:07:00,48.2,37.4,29.87,West,267,4.0,5.0,66,0.00,,,0.00,Wunderground v.1.15,2013-04-14 00:07:00,
2013-04-13 19:09:00,48.1,36.9,29.87,WSW,246,4.0,6.0,65,0.00,,,0.00,Wunderground v.1.15,2013-04-14 00:09:00,
2013-04-13 19:12:00,48.0,36.8,29.87,SW,236,5.0,7.0,65,0.00,,,0.00,Wunderground v.1.15,2013-04-14 00:12:00,
2013-04-13 19:14:00,48.0,36.4,29.87,SW,236,5.0,7.0,64,0.00,,,0.00,Wunderground v.1.15,2013-04-14 00:14:00,
2013-04-13 19:17:00,48.0,36.4,29.87,SW,236,6.0,7.0,64,0.00,,,0.00,Wunderground v.1.15,2013-04-14 00:17:00,
2013-04-13 19:18:00,48.0,36.4,29.86,SW,236,6.0,7.0,64,0.00,,,0.00,Wunderground v.1.15,2013-04-14 00:18:00,
2013-04-13 19:19:00,48.0,36.4,29.86,SW,236,6.0,7.0,64,0.00,,,0.00,Wunderground v.1.15,2013-04-14 00:19:00,
2013-04-13 19:21:00,47.9,35.9,29.86,SW,235,6.0,6.0,63,0.00,,,0.00,Wunderground v.1.15,2013-04-14 00:21:00,
2013-04-13 19:22:00,48.0,36.0,29.86,SW,234,6.0,6.0,63,0.00,,,0.00,Wunderground v.1.15,2013-04-14 00:22:00,
2013-04-13 19:25:00,47.9,36.3,29.87,SW,234,5.0,6.0,64,0.00,,,0.00,Wunderground v.1.15,2013-04-14 00:25:00,
2013-04-13 19:27:00,47.9,36.3,29.87,SW,234,5.0,6.0,64,0.00,,,0.00,Wunderground v.1.15,2013-04-14 00:27:00,
2013-04-13 19:28:00,47.9,36.3,29.87,SW,235,5.0,6.0,64,0.00,,,0.00,Wunderground v.1.15,2013-04-14 00:28:00,
2013-04-13 19:30:00,47.9,36.3,29.87,SW,235,5.0,5.0,64,0.00,,,0.00,Wunderground v.1.15,2013-04-14 00:30:00,
2013-04-13 19:34:00,47.8,36.2,29.87,SW,235,4.0,5.0,64,0.00,,,0.00,Wunderground v.1.15,2013-04-14 00:34:00,
2013-04-13 19:35:00,47.8,36.2,29.86,SW,235,4.0,5.0,64,0.00,,,0.00,Wunderground v.1.15,2013-04-14 00:35:00,
2013-04-13 19:37:00,47.7,36.1,29.85,SW,235,4.0,5.0,64,0.00,,,0.00,Wunderground v.1.15,2013-04-14 00:37:00,
2013-04-13 19:40:00,47.7,36.1,29.85,SW,235,3.0,4.0,64,0.00,,,0.00,Wunderground v.1.15,2013-04-14 00:40:00,
2013-04-13 19:41:00,47.7,36.1,29.86,SW,235,3.0,4.0,64,0.00,,,0.00,Wunderground v.1.15,2013-04-14 00:41:00,
2013-04-13 19:42:00,47.7,36.1,29.86,SW,235,3.0,4.0,64,0.00,,,0.00,Wunderground v.1.15,2013-04-14 00:42:00,
2013-04-13 19:45:00,47.7,36.1,29.86,SW,235,3.0,4.0,64,0.00,,,0.00,Wunderground v.1.15,2013-04-14 00:45:00,
2013-04-13 19:47:00,47.7,36.1,29.86,SW,235,3.0,4.0,64,0.00,,,0.00,Wunderground v.1.15,2013-04-14 00:47:00,
2013-04-13 19:48:00,47.7,36.1,29.85,SW,235,3.0,4.0,64,0.00,,,0.00,Wunderground v.1.15,2013-04-14 00:48:00,
2013-04-13 19:50:00,47.6,36.0,29.86,SW,235,3.0,3.0,64,0.00,,,0.00,Wunderground v.1.15,2013-04-14 00:50:00,
2013-04-13 19:52:00,47.7,36.1,29.86,SW,235,3.0,4.0,64,0.00,,,0.00,Wunderground v.1.15,2013-04-14 00:52:00,
2013-04-13 19:53:00,47.7,36.1,29.86,SW,235,3.0,4.0,64,0.00,,,0.00,Wunderground v.1.15,2013-04-14 00:53:00,
2013-04-13 19:54:00,47.7,36.1,29.86,SW,235,3.0,4.0,64,0.00,,,0.00,Wunderground v.1.15,2013-04-14 00:54:00,
2013-04-13 19:59:00,47.6,36.4,29.85,SW,235,3.0,4.0,65,0.00,,,0.00,Wunderground v.1.15,2013-04-14 00:59:00,
2013-04-13 20:00:00,47.6,36.4,29.85,SW,235,3.0,3.0,65,0.00,,,0.00,Wunderground v.1.15,2013-04-14 01:00:00,
2013-04-13 20:01:00,47.6,36.4,29.85,SW,235,3.0,3.0,65,0.00,,,0.00,Wunderground v.1.15,2013-04-14 01:01:00,
2013-04-13 20:04:00,47.5,36.7,29.85,SW,235,3.0,3.0,66,0.00,,,0.00,Wunderground v.1.15,2013-04-14 01:04:00,
2013-04-13 20:05:00,47.4,37.0,29.85,SW,234,3.0,3.0,67,0.00,,,0.00,Wunderground v.1.15,2013-04-14 01:05:00,
2013-04-13 20:07:00,47.4,37.0,29.85,SSW,192,3.0,5.0,67,0.00,,,0.00,Wunderground v.1.15,2013-04-14 01:07:00,
2013-04-13 20:09:00,47.3,36.5,29.85,South,186,3.0,5.0,66,0.00,,,0.00,Wunderground v.1.15,2013-04-14 01:09:00,
2013-04-13 20:13:00,47.2,36.8,29.85,South,186,4.0,4.0,67,0.00,,,0.00,Wunderground v.1.15,2013-04-14 01:13:00,
2013-04-13 20:14:00,47.2,36.8,29.85,South,186,4.0,4.0,67,0.00,,,0.00,Wunderground v.1.15,2013-04-14 01:14:00,
2013-04-13 20:15:00,47.1,37.4,29.85,South,186,4.0,4.0,69,0.00,,,0.00,Wunderground v.1.15,2013-04-14 01:15:00,
2013-04-13 20:18:00,46.9,37.3,29.86,South,186,4.0,5.0,69,0.00,,,0.00,Wunderground v.1.15,2013-04-14 01:18:00,
2013-04-13 20:19:00,46.9,37.6,29.85,South,186,4.0,5.0,70,0.00,,,0.00,Wunderground v.1.15,2013-04-14 01:19:00,
2013-04-13 20:21:00,46.8,37.2,29.86,South,186,4.0,4.0,69,0.00,,,0.00,Wunderground v.1.15,2013-04-14 01:21:00,
2013-04-13 20:23:00,46.7,37.1,29.86,South,186,4.0,4.0,69,0.00,,,0.00,Wunderground v.1.15,2013-04-14 01:23:00,
2013-04-13 20:24:00,46.6,37.0,29.86,South,186,3.0,4.0,69,0.00,,,0.00,Wunderground v.1.15,2013-04-14 01:24:00,
2013-04-13 20:26:00,46.6,36.6,29.86,South,186,3.0,4.0,68,0.00,,,0.00,Wunderground v.1.15,2013-04-14 01:26:00,
2013-04-13 20:30:00,46.6,35.8,29.86,South,186,2.0,2.0,66,0.00,,,0.00,Wunderground v.1.15,2013-04-14 01:30:00,
2013-04-13 20:31:00,46.6,35.8,29.86,South,186,2.0,2.0,66,0.00,,,0.00,Wunderground v.1.15,2013-04-14 01:31:00,
2013-04-13 20:32:00,46.7,35.9,29.86,South,186,2.0,2.0,66,0.00,,,0.00,Wunderground v.1.15,2013-04-14 01:32:00,
2013-04-13 20:35:00,46.8,36.0,29.86,South,186,2.0,3.0,66,0.00,,,0.00,Wunderground v.1.15,2013-04-14 01:35:00,
2013-04-13 20:37:00,46.8,35.6,29.86,South,186,2.0,3.0,65,0.00,,,0.00,Wunderground v.1.15,2013-04-14 01:37:00,
2013-04-13 20:39:00,46.9,35.7,29.87,South,186,2.0,3.0,65,0.00,,,0.00,Wunderground v.1.15,2013-04-14 01:39:00,
2013-04-13 20:42:00,46.9,35.7,29.86,South,186,2.0,4.0,65,0.00,,,0.00,Wunderground v.1.15,2013-04-14 01:42:00,
2013-04-13 20:43:00,46.9,35.7,29.86,South,186,3.0,4.0,65,0.00,,,0.00,Wunderground v.1.15,2013-04-14 01:43:00,
2013-04-13 20:44:00,46.9,35.7,29.86,South,186,3.0,5.0,65,0.00,,,0.00,Wunderground v.1.15,2013-04-14 01:44:00,
2013-04-13 20:45:00,46.9,35.7,29.86,South,186,3.0,5.0,65,0.00,,,0.00,Wunderground v.1.15,2013-04-14 01:45:00,
2013-04-13 20:49:00,46.9,35.7,29.86,South,186,4.0,6.0,65,0.00,,,0.00,Wunderground v.1.15,2013-04-14 01:49:00,
2013-04-13 20:50:00,46.9,35.7,29.86,South,186,4.0,4.0,65,0.00,,,0.00,Wunderground v.1.15,2013-04-14 01:50:00,
2013-04-13 20:51:00,46.9,36.1,29.86,South,186,4.0,4.0,66,0.00,,,0.00,Wunderground v.1.15,2013-04-14 01:51:00,
2013-04-13 20:54:00,46.9,36.1,29.86,South,186,3.0,4.0,66,0.00,,,0.00,Wunderground v.1.15,2013-04-14 01:54:00,
2013-04-13 20:55:00,46.9,36.1,29.86,South,186,3.0,4.0,66,0.00,,,0.00,Wunderground v.1.15,2013-04-14 01:55:00,
2013-04-13 20:57:00,46.9,36.1,29.86,South,186,2.0,4.0,66,0.00,,,0.00,Wunderground v.1.15,2013-04-14 01:57:00,
2013-04-13 20:58:00,46.9,36.1,29.86,South,186,2.0,4.0,66,0.00,,,0.00,Wunderground v.1.15,2013-04-14 01:58:00,
2013-04-13 21:03:00,46.8,36.0,29.86,South,186,3.0,5.0,66,0.00,,,0.00,Wunderground v.1.15,2013-04-14 02:03:00,
2013-04-13 21:05:00,46.8,36.0,29.86,South,186,3.0,5.0,66,0.00,,,0.00,Wunderground v.1.15,2013-04-14 02:05:00,
2013-04-13 21:06:00,46.8,36.0,29.86,South,186,3.0,5.0,66,0.00,,,0.00,Wunderground v.1.15,2013-04-14 02:06:00,
2013-04-13 21:09:00,46.9,35.7,29.86,South,186,4.0,5.0,65,0.00,,,0.00,Wunderground v.1.15,2013-04-14 02:09:00,
2013-04-13 21:10:00,46.8,35.6,29.86,South,186,4.0,5.0,65,0.00,,,0.00,Wunderground v.1.15,2013-04-14 02:10:00,
2013-04-13 21:11:00,46.9,35.4,29.86,South,186,4.0,5.0,64,0.00,,,0.00,Wunderground v.1.15,2013-04-14 02:11:00,
2013-04-13 21:15:00,46.9,36.5,29.87,South,186,4.0,5.0,67,0.00,,,0.00,Wunderground v.1.15,2013-04-14 02:15:00,
2013-04-13 21:17:00,46.8,36.4,29.87,South,186,5.0,5.0,67,0.00,,,0.00,Wunderground v.1.15,2013-04-14 02:17:00,
2013-04-13 21:18:00,46.8,36.0,29.86,South,186,5.0,5.0,66,0.00,,,0.00,Wunderground v.1.15,2013-04-14 02:18:00,
2013-04-13 21:20:00,46.8,36.0,29.87,South,186,4.0,4.0,66,0.00,,,0.00,Wunderground v.1.15,2013-04-14 02:20:00,
2013-04-13 21:22:00,46.8,36.0,29.87,South,186,4.0,4.0,66,0.00,,,0.00,Wunderground v.1.15,2013-04-14 02:22:00,
2013-04-13 21:23:00,46.8,36.0,29.87,South,186,4.0,4.0,66,0.00,,,0.00,Wunderground v.1.15,2013-04-14 02:23:00,
2013-04-13 21:24:00,46.8,36.0,29.87,South,186,4.0,4.0,66,0.00,,,0.00,Wunderground v.1.15,2013-04-14 02:24:00,
2013-04-13 21:25:00,46.8,36.4,29.87,South,186,4.0,4.0,67,0.00,,,0.00,Wunderground v.1.15,2013-04-14 02:25:00,
2013-04-13 21:29:00,46.7,36.3,29.87,South,186,4.0,5.0,67,0.00,,,0.00,Wunderground v.1.15,2013-04-14 02:29:00,
2013-04-13 21:32:00,46.7,36.7,29.87,South,186,4.0,4.0,68,0.00,,,0.00,Wunderground v.1.15,2013-04-14 02:32:00,
2013-04-13 21:33:00,46.6,36.6,29.87,South,186,4.0,4.0,68,0.00,,,0.00,Wunderground v.1.15,2013-04-14 02:33:00,
2013-04-13 21:34:00,46.6,36.2,29.87,South,186,4.0,4.0,67,0.00,,,0.00,Wunderground v.1.15,2013-04-14 02:34:00,
2013-04-13 21:40:00,46.6,37.0,29.87,South,186,4.0,4.0,69,0.00,,,0.00,Wunderground v.1.15,2013-04-14 02:40:00,
2013-04-13 21:41:00,46.6,37.0,29.88,South,186,4.0,4.0,69,0.00,,,0.00,Wunderground v.1.15,2013-04-14 02:41:00,
2013-04-13 21:43:00,46.5,36.9,29.88,South,186,5.0,5.0,69,0.00,,,0.00,Wunderground v.1.15,2013-04-14 02:43:00,
2013-04-13 21:45:00,46.5,36.9,29.87,South,186,5.0,5.0,69,0.00,,,0.00,Wunderground v.1.15,2013-04-14 02:45:00,
2013-04-13 21:46:00,46.5,36.9,29.87,South,186,5.0,5.0,69,0.00,,,0.00,Wunderground v.1.15,2013-04-14 02:46:00,
2013-04-13 21:50:00,46.4,36.8,29.87,South,185,5.0,5.0,69,0.00,,,0.00,Wunderground v.1.15,2013-04-14 02:50:00,
2013-04-13 21:52:00,46.4,37.1,29.87,South,185,5.0,5.0,70,0.00,,,0.00,Wunderground v.1.15,2013-04-14 02:52:00,
2013-04-13 21:55:00,46.4,36.8,29.87,South,186,4.0,5.0,69,0.00,,,0.00,Wunderground v.1.15,2013-04-14 02:55:00,
2013-04-13 21:56:00,46.4,36.8,29.87,South,186,4.0,5.0,69,0.00,,,0.00,Wunderground v.1.15,2013-04-14 02:56:00,
2013-04-13 21:57:00,46.4,36.8,29.87,South,186,4.0,5.0,69,0.00,,,0.00,Wunderground v.1.15,2013-04-14 02:57:00,
2013-04-13 22:02:00,46.4,36.4,29.87,South,186,3.0,4.0,68,0.00,,,0.00,Wunderground v.1.15,2013-04-14 03:02:00,
2013-04-13 22:04:00,46.5,36.5,29.87,South,185,3.0,4.0,68,0.00,,,0.00,Wunderground v.1.15,2013-04-14 03:04:00,
2013-04-13 22:05:00,46.5,36.5,29.87,South,186,3.0,4.0,68,0.00,,,0.00,Wunderground v.1.15,2013-04-14 03:05:00,
2013-04-13 22:08:00,46.5,36.1,29.87,South,186,3.0,4.0,67,0.00,,,0.00,Wunderground v.1.15,2013-04-14 03:08:00,
2013-04-13 22:11:00,46.5,36.1,29.86,South,186,3.0,3.0,67,0.00,,,0.00,Wunderground v.1.15,2013-04-14 03:11:00,
2013-04-13 22:13:00,46.5,36.1,29.86,South,186,3.0,3.0,67,0.00,,,0.00,Wunderground v.1.15,2013-04-14 03:13:00,
2013-04-13 22:14:00,46.5,36.1,29.87,South,185,3.0,4.0,67,0.00,,,0.00,Wunderground v.1.15,2013-04-14 03:14:00,
2013-04-13 22:18:00,46.5,36.1,29.87,South,186,3.0,4.0,67,0.00,,,0.00,Wunderground v.1.15,2013-04-14 03:18:00,
2013-04-13 22:19:00,46.5,36.1,29.87,South,185,3.0,4.0,67,0.00,,,0.00,Wunderground v.1.15,2013-04-14 03:19:00,
2013-04-13 22:24:00,46.5,36.1,29.87,South,186,3.0,3.0,67,0.00,,,0.00,Wunderground v.1.15,2013-04-14 03:24:00,
2013-04-13 22:25:00,46.4,36.0,29.87,South,186,3.0,3.0,67,0.00,,,0.00,Wunderground v.1.15,2013-04-14 03:25:00,
2013-04-13 22:26:00,46.4,36.0,29.87,South,185,3.0,3.0,67,0.00,,,0.00,Wunderground v.1.15,2013-04-14 03:26:00,
2013-04-13 22:30:00,46.4,36.0,29.87,South,186,3.0,4.0,67,0.00,,,0.00,Wunderground v.1.15,2013-04-14 03:30:00,
2013-04-13 22:31:00,46.4,36.0,29.87,South,186,3.0,4.0,67,0.00,,,0.00,Wunderground v.1.15,2013-04-14 03:31:00,
2013-04-13 22:36:00,46.4,36.0,29.87,South,185,3.0,5.0,67,0.00,,,0.00,Wunderground v.1.15,2013-04-14 03:36:00,
2013-04-13 22:37:00,46.4,36.0,29.87,South,185,3.0,5.0,67,0.00,,,0.00,Wunderground v.1.15,2013-04-14 03:37:00,
2013-04-13 22:38:00,46.4,36.0,29.87,South,185,4.0,5.0,67,0.00,,,0.00,Wunderground v.1.15,2013-04-14 03:38:00,
2013-04-13 22:43:00,46.4,36.0,29.87,South,185,4.0,4.0,67,0.00,,,0.00,Wunderground v.1.15,2013-04-14 03:43:00,
2013-04-13 22:46:00,46.4,36.0,29.87,South,185,4.0,4.0,67,0.00,,,0.00,Wunderground v.1.15,2013-04-14 03:46:00,
2013-04-13 22:48:00,46.4,36.4,29.87,South,185,3.0,4.0,68,0.00,,,0.00,Wunderground v.1.15,2013-04-14 03:48:00,
2013-04-13 22:50:00,46.3,36.7,29.87,South,186,3.0,3.0,69,0.00,,,0.00,Wunderground v.1.15,2013-04-14 03:50:00,
2013-04-13 22:51:00,46.3,36.7,29.87,South,186,3.0,3.0,69,0.00,,,0.00,Wunderground v.1.15,2013-04-14 03:51:00,
2013-04-13 22:56:00,46.0,36.8,29.86,South,185,4.0,4.0,70,0.00,,,0.00,Wunderground v.1.15,2013-04-14 03:56:00,
2013-04-13 22:57:00,45.9,36.7,29.87,South,186,4.0,4.0,70,0.00,,,0.00,Wunderground v.1.15,2013-04-14 03:57:00,
2013-04-13 23:00:00,45.8,36.6,29.87,South,185,3.0,4.0,70,0.00,,,0.00,Wunderground v.1.15,2013-04-14 04:00:00,
2013-04-13 23:01:00,45.9,36.7,29.86,South,185,3.0,4.0,70,0.00,,,0.00,Wunderground v.1.15,2013-04-14 04:01:00,
2013-04-13 23:02:00,45.8,36.9,29.87,South,185,3.0,4.0,71,0.00,,,0.00,Wunderground v.1.15,2013-04-14 04:02:00,
2013-04-13 23:05:00,45.7,37.2,29.86,South,185,3.0,4.0,72,0.00,,,0.00,Wunderground v.1.15,2013-04-14 04:05:00,
2013-04-13 23:07:00,45.6,37.1,29.86,South,185,3.0,4.0,72,0.00,,,0.00,Wunderground v.1.15,2013-04-14 04:07:00,
2013-04-13 23:09:00,45.6,37.4,29.86,South,185,3.0,4.0,73,0.00,,,0.00,Wunderground v.1.15,2013-04-14 04:09:00,
2013-04-13 23:11:00,45.5,37.7,29.86,South,185,3.0,4.0,74,0.00,,,0.00,Wunderground v.1.15,2013-04-14 04:11:00,
2013-04-13 23:12:00,45.4,37.6,29.86,South,185,4.0,4.0,74,0.00,,,0.00,Wunderground v.1.15,2013-04-14 04:12:00,
2013-04-13 23:15:00,45.2,38.1,29.87,South,185,4.0,5.0,76,0.00,,,0.00,Wunderground v.1.15,2013-04-14 04:15:00,
2013-04-13 23:16:00,45.2,38.1,29.86,South,185,4.0,5.0,76,0.00,,,0.00,Wunderground v.1.15,2013-04-14 04:16:00,
2013-04-13 23:17:00,45.1,38.0,29.86,South,185,4.0,5.0,76,0.00,,,0.00,Wunderground v.1.15,2013-04-14 04:17:00,
2013-04-13 23:19:00,45.1,37.6,29.86,South,185,4.0,5.0,75,0.00,,,0.00,Wunderground v.1.15,2013-04-14 04:19:00,
2013-04-13 23:22:00,45.1,37.3,29.86,South,185,4.0,4.0,74,0.00,,,0.00,Wunderground v.1.15,2013-04-14 04:22:00,
2013-04-13 23:24:00,45.2,37.4,29.86,South,185,4.0,4.0,74,0.00,,,0.00,Wunderground v.1.15,2013-04-14 04:24:00,
2013-04-13 23:25:00,45.2,37.4,29.86,South,185,3.0,4.0,74,0.00,,,0.00,Wunderground v.1.15,2013-04-14 04:25:00,
2013-04-13 23:29:00,45.4,37.6,29.86,South,185,3.0,4.0,74,0.00,,,0.00,Wunderground v.1.15,2013-04-14 04:29:00,
2013-04-13 23:30:00,45.4,37.6,29.86,South,185,3.0,3.0,74,0.00,,,0.00,Wunderground v.1.15,2013-04-14 04:30:00,
2013-04-13 23:34:00,45.4,37.6,29.86,South,185,2.0,3.0,74,0.00,,,0.00,Wunderground v.1.15,2013-04-14 04:34:00,
2013-04-13 23:36:00,45.4,37.9,29.86,South,185,3.0,3.0,75,0.00,,,0.00,Wunderground v.1.15,2013-04-14 04:36:00,
2013-04-13 23:38:00,45.4,37.9,29.86,South,185,3.0,3.0,75,0.00,,,0.00,Wunderground v.1.15,2013-04-14 04:38:00,
2013-04-13 23:39:00,45.4,37.9,29.87,South,185,3.0,3.0,75,0.00,,,0.00,Wunderground v.1.15,2013-04-14 04:39:00,
2013-04-13 23:43:00,45.4,38.9,29.87,South,185,3.0,3.0,78,0.00,,,0.00,Wunderground v.1.15,2013-04-14 04:43:00,
2013-04-13 23:44:00,45.4,38.9,29.86,South,180,3.0,3.0,78,0.00,,,0.00,Wunderground v.1.15,2013-04-14 04:44:00,
2013-04-13 23:45:00,45.3,38.8,29.86,South,175,3.0,4.0,78,0.00,,,0.00,Wunderground v.1.15,2013-04-14 04:45:00,
2013-04-13 23:49:00,45.1,38.3,29.87,SSE,163,3.0,4.0,77,0.00,,,0.00,Wunderground v.1.15,2013-04-14 04:49:00,
2013-04-13 23:50:00,45.1,38.3,29.87,SSE,163,3.0,3.0,77,0.00,,,0.00,Wunderground v.1.15,2013-04-14 04:50:00,
2013-04-13 23:51:00,45.2,38.7,29.87,SSE,163,3.0,3.0,78,0.00,,,0.00,Wunderground v.1.15,2013-04-14 04:51:00,
2013-04-13 23:55:00,45.1,39.0,29.87,SSE,163,3.0,4.0,79,0.00,,,0.00,Wunderground v.1.15,2013-04-14 04:55:00,
2013-04-13 23:56:00,45.0,38.9,29.87,SSE,163,3.0,4.0,79,0.00,,,0.00,Wunderground v.1.15,2013-04-14 04:56:00,
2013-04-13 23:58:00,45.0,38.9,29.87,SSE,163,3.0,4.0,79,0.00,,,0.00,Wunderground v.1.15,2013-04-14 04:58:00,
2013-04-13 23:59:00,44.9,38.8,29.87,SSE,163,3.0,4.0,79,0.00,,,0.00,Wunderground v.1.15,2013-04-14 04:59:00,